Lewistown, MT

7:13 AM MST on December 18, 2017 (GMT -0700)
Lewistown Municipal

Weather History for KLWT - September, 2013

Change the Weather History Date:

Wednesday, September 4, 2013

  Actual Average Record
Temperature  
Mean Temperature 74 °F 59 °F  
Max Temperature 88 °F 74 °F 93 °F (1924)
Min Temperature 60 °F 45 °F 20 °F (1929)
Degree Days  
Heating Degree Days 0 7  
Month to date heating degree days 0 25  
Since 1 July heating degree days 39 183  
Cooling Degree Days 9 1  
Month to date cooling degree days 26 4  
Year to date cooling degree days 256 200  
Growing Degree Days 24 (Base 50)    
Moisture  
Dew Point 50 °F    
Average Humidity 50    
Maximum Humidity 73    
Minimum Humidity 27    
Precipitation  
Precipitation T in 0.05 in 0.80 in (1901)
Month to date precipitation T 0.19  
Year to date precipitation 18.06 13.19  
Snow  
Snow 0.00 in - - ()
Snow Depth 0.00 in    
Sea Level Pressure  
Sea Level Pressure 30.03 in    
Wind  
Wind Speed 5 mph (SE)    
Max Wind Speed 13 mph    
Max Gust Speed 20 mph    
Visibility 10 miles    
Events      
T = Trace of Precipitation, MM = Missing Value Source: NWS Daily Summary

Daily Weather History Graph

Daily Weather History Graph

Search for Another Location

Airport or City:

Trip Planner

Search our weather history database for the weather conditions in past years. The results will help you decide how hot, cold, wet, or windy it might be!

Date:

Astronomy

Sep. 04, 2013 Rise Set
Actual Time 6:41 AM MDT 7:51 PM MDT
Civil Twilight 6:10 AM MDT 8:22 PM MDT
Nautical Twilight 5:32 AM MDT 8:59 PM MDT
Astronomical Twilight 4:52 AM MDT 9:39 PM MDT
Moon 5:57 AM MDT (9/4) 7:09 PM MDT (9/4)
Length of Visible Light 14h 12m
Length of Day
13h 09m
Waning Crescent, 1% of the Moon is Illuminated
Sep 4
Waning Crescent
Sep 5
New
Sep 12
First Quarter
Sep 19
Full
Sep 26
Last Quarter

Hourly Weather History & Observations

Time (MDT) Temp. Dew Point Humidity Pressure Visibility Wind Dir Wind Speed Gust Speed Precip Events Conditions
12:54 AM 66.0 °F 46.0 °F 48% 30.01 in 10.0 mi SW 10.4 mph - N/A   Clear
1:54 AM 60.1 °F 46.0 °F 60% 30.02 in 10.0 mi WSW 5.8 mph - N/A   Clear
2:54 AM 64.0 °F 46.0 °F 52% 30.00 in 10.0 mi SSW 3.5 mph - N/A   Clear
3:54 AM 64.9 °F 46.9 °F 52% 30.00 in 10.0 mi West 6.9 mph - N/A   Clear
4:54 AM 62.1 °F 48.0 °F 60% 30.01 in 10.0 mi ESE 3.5 mph - N/A   Clear
5:54 AM 64.0 °F 48.0 °F 56% 30.01 in 10.0 mi SSW 5.8 mph - N/A   Partly Cloudy
6:54 AM 62.1 °F 51.1 °F 67% 30.04 in 10.0 mi South 6.9 mph - 0.00 in   Overcast
7:54 AM 64.0 °F 55.0 °F 73% 30.06 in 10.0 mi Calm Calm - 0.00 in   Overcast
8:54 AM 64.0 °F 53.1 °F 67% 30.08 in 10.0 mi SE 4.6 mph - N/A   Overcast
9:54 AM 70.0 °F 50.0 °F 49% 30.07 in 10.0 mi WNW 3.5 mph - N/A   Partly Cloudy
10:54 AM 75.0 °F 48.0 °F 38% 30.07 in 10.0 mi Calm Calm - N/A   Partly Cloudy
11:54 AM 79.0 °F 48.9 °F 35% 30.05 in 10.0 mi Variable 3.5 mph - N/A   Clear
12:54 PM 82.0 °F 48.0 °F 30% 30.03 in 10.0 mi Calm Calm - N/A   Clear
1:54 PM 86.0 °F 50.0 °F 29% 30.01 in 10.0 mi ENE 5.8 mph - N/A   Clear
2:54 PM 86.0 °F 48.9 °F 28% 29.99 in 10.0 mi Variable 3.5 mph - N/A   Clear
3:54 PM 87.1 °F 50.0 °F 28% 29.99 in 10.0 mi ENE 11.5 mph - N/A   Clear
4:54 PM 86.0 °F 50.0 °F 29% 29.99 in 10.0 mi ENE 8.1 mph - N/A   Clear
5:30 PM 84.2 °F 51.8 °F 33% 30.12 in 10.0 mi East 9.2 mph - N/A   Partly Cloudy
5:54 PM 84.9 °F 51.1 °F 31% 29.99 in 10.0 mi East 10.4 mph - N/A   Clear
6:54 PM 82.0 °F 51.1 °F 34% 30.00 in 10.0 mi East 9.2 mph - N/A   Clear
7:54 PM 75.0 °F 51.1 °F 43% 30.01 in 10.0 mi ESE 5.8 mph - N/A   Clear
8:54 PM 70.0 °F 51.1 °F 51% 30.04 in 10.0 mi East 6.9 mph - N/A   Clear
9:54 PM 70.0 °F 51.1 °F 51% 30.03 in 10.0 mi East 9.2 mph - N/A   Clear
10:54 PM 66.9 °F 51.1 °F 57% 30.03 in 10.0 mi East 5.8 mph - N/A   Clear
11:54 PM 64.0 °F 51.1 °F 63% 30.03 in 10.0 mi South 3.5 mph - N/A   Clear